User: anonymous   Login
Location: Fort Wayne
(41.1310°N, 85.1290°W)
Time: 12:05:47
(UTC-04:00)
Language:

COSMOS 2406 - Orbit

View from above orbital plane
View from above orbital plane
View from above satellite
View from above satellite

Ground track
Ground track

The orbit data is extracted from the following two-line orbital elements,

1 28352U 04021A   15088.17624462 -.00000219  00000-0 -94712-4 0  9992
2 28352 071.0051 017.7411 0016503 246.2709 212.8173 14.11396681556417
Epoch (UTC): 29 March 2015 04:13:47
Eccentricity: 0.0016503
inclination: 71.0051°
perigee height: 842 km
apogee height: 866 km
right ascension of ascending node: 17.7411°
argument of perigee: 246.2709°
revolutions per day: 14.11396681
mean anomaly at epoch: 212.8173°
orbit number at epoch: 55641

The dashed part of the orbit path shows where the satellite is in the earth's shadow,  

DLR